| time (UTC) | temp F | wind direction | speed MPH | gust MPH | rain 1hr in | rain 24hr in | rain mn in | humidity % | barometer mb |
| 20260901034004 | 70 | 333 | 13.0 | 20.0 | 0.00 | 0.00 | 0.00 | 55 | 1014.7 |
| 20260901033503 | 70 | 328 | 13.0 | 23.0 | 0.00 | 0.00 | 0.00 | 54 | 1014.8 |
| 20260901033004 | 70 | 333 | 13.0 | 25.0 | 0.00 | 0.00 | 0.00 | 54 | 1015.2 |
| 20260901032504 | 70 | 334 | 13.0 | 25.0 | 0.00 | 0.00 | 0.00 | 55 | 1015.1 |
| 20260901032004 | 70 | 330 | 13.0 | 20.0 | 0.00 | 0.00 | 0.00 | 55 | 1015.3 |
| 20260901031504 | 70 | 327 | 13.0 | 20.0 | 0.00 | 0.00 | 0.00 | 54 | 1015.4 |
| 20260901031003 | 70 | 321 | 14.0 | 25.0 | 0.00 | 0.00 | 0.00 | 54 | 1015.6 |
| 20260901030504 | 70 | 332 | 15.0 | 27.0 | 0.00 | 0.00 | 0.00 | 53 | 1015.5 |
| 20260901030003 | 70 | 345 | 15.0 | 27.0 | 0.00 | 0.00 | 0.00 | 53 | 1015.5 |
| 20260901025504 | 71 | 352 | 14.0 | 30.0 | 0.00 | 0.00 | 0.00 | 54 | 1015.4 |
| 20260901025003 | 70 | 354 | 12.0 | 30.0 | 0.00 | 0.00 | 0.00 | 53 | 1015.6 |
| 20260901024504 | 70 | 355 | 12.0 | 27.0 | 0.00 | 0.00 | 0.00 | 55 | 1015.7 |
| 20260901024004 | 69 | 349 | 11.0 | 23.0 | 0.00 | 0.00 | 0.00 | 55 | 1015.8 |
| 20260901023504 | 68 | 342 | 11.0 | 23.0 | 0.00 | 0.00 | 0.00 | 56 | 1016.0 |
| 20260901023003 | 68 | 341 | 10.0 | 19.0 | 0.00 | 0.00 | 0.00 | 56 | 1016.1 |
| 20260901022503 | 68 | 338 | 9.0 | 17.0 | 0.00 | 0.00 | 0.00 | 58 | 1016.3 |
| 20260901022003 | 68 | 335 | 9.0 | 17.0 | 0.00 | 0.00 | 0.00 | 57 | 1016.6 |
| 20260901021524 | 68 | 339 | 9.0 | 17.0 | 0.00 | 0.00 | 0.00 | 58 | 1016.6 |
| 20260901021025 | 68 | 347 | 10.0 | 18.0 | 0.00 | 0.00 | 0.00 | 58 | 1016.5 |
| 20260901020525 | 67 | 350 | 10.0 | 18.0 | 0.00 | 0.00 | 0.00 | 57 | 1016.5 |
| 20260901020003 | 67 | 353 | 11.0 | 18.0 | 0.00 | 0.00 | 0.00 | 58 | 1016.4 |
| 20260901015503 | 67 | 360 | 11.0 | 18.0 | 0.00 | 0.00 | 0.00 | 57 | 1016.4 |
| 20260901015004 | 68 | 1 | 11.0 | 19.0 | 0.00 | 0.00 | 0.00 | 57 | 1016.3 |
| 20260901014503 | 68 | 356 | 12.0 | 19.0 | 0.00 | 0.00 | 0.00 | 56 | 1016.4 |
| 20260901014004 | 68 | 351 | 13.0 | 20.0 | 0.00 | 0.00 | 0.00 | 56 | 1016.7 |
| 20260901013503 | 68 | 348 | 13.0 | 20.0 | 0.00 | 0.00 | 0.00 | 55 | 1016.8 |
| 20260901013003 | 68 | 341 | 12.0 | 20.0 | 0.00 | 0.00 | 0.00 | 55 | 1017.0 |
| 20260901012503 | 68 | 340 | 11.0 | 20.0 | 0.00 | 0.00 | 0.00 | 56 | 1017.1 |
| 20260901012004 | 68 | 341 | 11.0 | 20.0 | 0.00 | 0.00 | 0.00 | 56 | 1017.2 |
| 20260901011504 | 68 | 341 | 11.0 | 18.0 | 0.00 | 0.00 | 0.00 | 57 | 1017.2 |
| 20260901011004 | 68 | 348 | 12.0 | 24.0 | 0.00 | 0.00 | 0.00 | 58 | 1017.2 |
| 20260901010525 | 68 | 348 | 12.0 | 24.0 | 0.00 | 0.00 | 0.00 | 56 | 1017.3 |
| 20260901010004 | 67 | 346 | 11.0 | 18.0 | 0.00 | 0.00 | 0.00 | 57 | 1017.2 |
| 20260901005503 | 67 | 348 | 11.0 | 23.0 | 0.00 | 0.00 | 0.00 | 58 | 1017.2 |
| 20260901005025 | 67 | 349 | 11.0 | 23.0 | 0.00 | 0.00 | 0.00 | 57 | 1017.3 |
| 20260901004503 | 67 | 352 | 11.0 | 19.0 | 0.00 | 0.00 | 0.00 | 57 | 1017.4 |
| 20260901004003 | 67 | 351 | 11.0 | 19.0 | 0.00 | 0.00 | 0.00 | 55 | 1017.2 |
| 20260901003504 | 67 | 356 | 11.0 | 19.0 | 0.00 | 0.00 | 0.00 | 56 | 1017.3 |
| 20260901003025 | 68 | 1 | 10.0 | 19.0 | 0.00 | 0.00 | 0.00 | 56 | 1017.3 |
| 20260901002504 | 68 | 3 | 11.0 | 17.0 | 0.00 | 0.00 | 0.00 | 55 | 1017.5 |
| 20260901002024 | 68 | 4 | 11.0 | 19.0 | 0.00 | 0.00 | 0.00 | 56 | 1017.5 |
| 20260901001525 | 68 | 4 | 10.0 | 20.0 | 0.00 | 0.00 | 0.00 | 55 | 1017.5 |
| 20260901001003 | 68 | 3 | 10.0 | 20.0 | 0.00 | 0.00 | 0.00 | 55 | 1017.6 |
| 20260901000503 | 68 | 5 | 10.0 | 17.0 | 0.00 | 0.00 | 0.00 | 56 | 1017.6 |
| 20260901000003 | 67 | 9 | 11.0 | 19.0 | 0.00 | 0.00 | 0.00 | 56 | 1017.6 |
| 20260831235503 | 66 | 7 | 11.0 | 19.0 | 0.00 | 0.00 | 0.00 | 56 | 1017.7 |
| 20260831235003 | 65 | 5 | 11.0 | 18.0 | 0.00 | 0.00 | 0.00 | 57 | 1017.7 |
| 20260831234504 | 65 | 6 | 12.0 | 23.0 | 0.00 | 0.00 | 0.00 | 56 | 1017.8 |
| 20260831234025 | 65 | 5 | 13.0 | 23.0 | 0.00 | 0.00 | 0.00 | 56 | 1017.7 |
| 20260831233525 | 65 | 7 | 13.0 | 20.0 | 0.00 | 0.00 | 0.00 | 56 | 1017.7 |
| 20260831233004 | 65 | 10 | 13.0 | 27.0 | 0.00 | 0.00 | 0.00 | 56 | 1017.7 |
| 20260831232503 | 65 | 7 | 13.0 | 27.0 | 0.00 | 0.00 | 0.00 | 55 | 1017.7 |
| 20260831232003 | 65 | 7 | 13.0 | 25.0 | 0.00 | 0.00 | 0.00 | 55 | 1017.8 |
| 20260831231524 | 65 | 9 | 13.0 | 25.0 | 0.00 | 0.00 | 0.00 | 54 | 1017.7 |
| 20260831231003 | 65 | 13 | 13.0 | 24.0 | 0.00 | 0.00 | 0.00 | 54 | 1017.8 |
| 20260831230524 | 65 | 12 | 12.0 | 27.0 | 0.00 | 0.00 | 0.00 | 54 | 1017.8 |
| 20260831230004 | 65 | 13 | 13.0 | 28.0 | 0.00 | 0.00 | 0.00 | 54 | 1017.7 |
| 20260831225504 | 65 | 15 | 14.0 | 28.0 | 0.00 | 0.00 | 0.00 | 54 | 1017.7 |
| 20260831225003 | 65 | 15 | 13.0 | 24.0 | 0.00 | 0.00 | 0.00 | 54 | 1017.7 |
| 20260831224504 | 64 | 16 | 13.0 | 24.0 | 0.00 | 0.00 | 0.00 | 55 | 1017.8 |
| 20260831224003 | 64 | 18 | 13.0 | 19.0 | 0.00 | 0.00 | 0.00 | 56 | 1018.0 |
| 20260831223504 | 64 | 15 | 13.0 | 19.0 | 0.00 | 0.00 | 0.00 | 56 | 1018.1 |
| 20260831223004 | 64 | 8 | 13.0 | 23.0 | 0.00 | 0.00 | 0.00 | 56 | 1018.3 |
| 20260831222503 | 64 | 5 | 11.0 | 24.0 | 0.00 | 0.00 | 0.00 | 55 | 1018.3 |
| 20260831222003 | 64 | 7 | 11.0 | 24.0 | 0.00 | 0.00 | 0.00 | 56 | 1018.3 |
| 20260831221503 | 64 | 9 | 11.0 | 19.0 | 0.00 | 0.00 | 0.00 | 56 | 1018.3 |
| 20260831221003 | 63 | 6 | 12.0 | 19.0 | 0.00 | 0.00 | 0.00 | 56 | 1018.3 |
| 20260831220503 | 63 | 9 | 12.0 | 24.0 | 0.00 | 0.00 | 0.00 | 57 | 1018.3 |
| 20260831220003 | 62 | 8 | 12.0 | 24.0 | 0.00 | 0.00 | 0.00 | 58 | 1018.3 |
| 20260831215524 | 62 | 7 | 11.0 | 20.0 | 0.00 | 0.00 | 0.00 | 58 | 1018.2 |
| 20260831215004 | 61 | 10 | 10.0 | 20.0 | 0.00 | 0.00 | 0.00 | 59 | 1018.3 |
| 20260831214504 | 61 | 15 | 10.0 | 18.0 | 0.00 | 0.00 | 0.00 | 59 | 1018.2 |
| 20260831214025 | 61 | 17 | 11.0 | 18.0 | 0.00 | 0.00 | 0.00 | 59 | 1018.2 |
| 20260831213525 | 61 | 14 | 12.0 | 18.0 | 0.00 | 0.00 | 0.00 | 59 | 1018.2 |
| 20260831213004 | 61 | 10 | 12.0 | 19.0 | 0.00 | 0.00 | 0.00 | 58 | 1018.1 |
| 20260831212504 | 61 | 9 | 12.0 | 19.0 | 0.00 | 0.00 | 0.00 | 58 | 1018.2 |
| 20260831212004 | 61 | 15 | 11.0 | 23.0 | 0.00 | 0.00 | 0.00 | 58 | 1018.1 |
| 20260831211504 | 61 | 21 | 11.0 | 23.0 | 0.00 | 0.00 | 0.00 | 58 | 1018.1 |
| 20260831211004 | 61 | 19 | 11.0 | 19.0 | 0.00 | 0.00 | 0.00 | 58 | 1018.1 |
| 20260831210504 | 61 | 15 | 11.0 | 19.0 | 0.00 | 0.00 | 0.00 | 59 | 1018.1 |
| 20260831210025 | 61 | 17 | 10.0 | 19.0 | 0.00 | 0.00 | 0.00 | 59 | 1018.2 |
| 20260831205504 | 60 | 23 | 10.0 | 17.0 | 0.00 | 0.00 | 0.00 | 59 | 1018.2 |
| 20260831205004 | 60 | 22 | 10.0 | 15.0 | 0.00 | 0.00 | 0.00 | 60 | 1018.2 |
| 20260831204504 | 60 | 18 | 10.0 | 17.0 | 0.00 | 0.00 | 0.00 | 59 | 1018.3 |
| 20260831204025 | 60 | 14 | 10.0 | 17.0 | 0.00 | 0.00 | 0.00 | 59 | 1018.3 |
| 20260831203504 | 60 | 10 | 10.0 | 18.0 | 0.00 | 0.00 | 0.00 | 59 | 1018.3 |
| 20260831203004 | 60 | 12 | 10.0 | 18.0 | 0.00 | 0.00 | 0.00 | 60 | 1018.3 |
| 20260831202525 | 60 | 14 | 10.0 | 19.0 | 0.00 | 0.00 | 0.00 | 60 | 1018.3 |
| 20260831202004 | 60 | 12 | 11.0 | 19.0 | 0.00 | 0.00 | 0.00 | 59 | 1018.3 |
| 20260831201504 | 60 | 13 | 11.0 | 18.0 | 0.00 | 0.00 | 0.00 | 59 | 1018.3 |
| 20260831201004 | 60 | 12 | 11.0 | 19.0 | 0.00 | 0.00 | 0.00 | 59 | 1018.4 |
| 20260831200504 | 60 | 11 | 10.0 | 19.0 | 0.00 | 0.00 | 0.00 | 60 | 1018.3 |
| 20260831200004 | 60 | 12 | 11.0 | 19.0 | 0.00 | 0.00 | 0.00 | 60 | 1018.4 |
| 20260831195504 | 60 | 13 | 11.0 | 20.0 | 0.00 | 0.00 | 0.00 | 60 | 1018.3 |
| 20260831195025 | 60 | 14 | 11.0 | 23.0 | 0.00 | 0.00 | 0.00 | 60 | 1018.4 |
| 20260831194534 | 60 | 16 | 11.0 | 23.0 | 0.00 | 0.00 | 0.00 | 60 | 1018.5 |
| 20260831194025 | 60 | 22 | 10.0 | 24.0 | 0.00 | 0.00 | 0.00 | 61 | 1018.5 |
| 20260831193504 | 60 | 22 | 11.0 | 24.0 | 0.00 | 0.00 | 0.00 | 60 | 1018.4 |
| 20260831193007 | 60 | 22 | 11.0 | 24.0 | 0.00 | 0.00 | 0.00 | 61 | 1018.6 |
| 20260831192504 | 60 | 23 | 11.0 | 24.0 | 0.00 | 0.00 | 0.00 | 60 | 1018.5 |
| 20260831192004 | 60 | 18 | 11.0 | 18.0 | 0.00 | 0.00 | 0.00 | 61 | 1018.6 |
| 20260831191504 | 60 | 17 | 11.0 | 18.0 | 0.00 | 0.00 | 0.00 | 60 | 1018.5 |
| 20260831191004 | 60 | 14 | 11.0 | 19.0 | 0.00 | 0.00 | 0.00 | 60 | 1018.6 |
| 20260831190504 | 60 | 16 | 12.0 | 19.0 | 0.00 | 0.00 | 0.00 | 60 | 1018.6 |
| 20260831190004 | 60 | 16 | 12.0 | 19.0 | 0.00 | 0.00 | 0.00 | 60 | 1018.6 |
| 20260831185504 | 60 | 14 | 11.0 | 23.0 | 0.00 | 0.00 | 0.00 | 59 | 1018.6 |
| 20260831185004 | 60 | 17 | 11.0 | 23.0 | 0.00 | 0.00 | 0.00 | 60 | 1018.6 |
| 20260831184504 | 60 | 21 | 10.0 | 19.0 | 0.00 | 0.00 | 0.00 | 60 | 1018.7 |
| 20260831184004 | 59 | 21 | 10.0 | 17.0 | 0.00 | 0.00 | 0.00 | 60 | 1018.8 |
| 20260831183504 | 59 | 20 | 10.0 | 17.0 | 0.00 | 0.00 | 0.00 | 60 | 1018.9 |
| 20260831183004 | 60 | 19 | 10.0 | 18.0 | 0.00 | 0.00 | 0.00 | 59 | 1019.0 |
| 20260831182504 | 60 | 17 | 10.0 | 18.0 | 0.00 | 0.00 | 0.00 | 59 | 1019.0 |
| 20260831182004 | 60 | 20 | 11.0 | 18.0 | 0.00 | 0.00 | 0.00 | 59 | 1019.0 |
| 20260831181504 | 60 | 24 | 11.0 | 20.0 | 0.00 | 0.00 | 0.00 | 59 | 1019.1 |
| 20260831181004 | 60 | 27 | 10.0 | 20.0 | 0.00 | 0.00 | 0.00 | 59 | 1019.1 |
| 20260831180504 | 60 | 30 | 11.0 | 18.0 | 0.00 | 0.00 | 0.00 | 59 | 1019.2 |
| 20260831180004 | 60 | 19 | 11.0 | 20.0 | 0.00 | 0.00 | 0.00 | 58 | 1019.2 |
| 20260831175504 | 60 | 11 | 12.0 | 20.0 | 0.00 | 0.00 | 0.00 | 58 | 1019.3 |
| 20260831175004 | 60 | 14 | 13.0 | 23.0 | 0.00 | 0.00 | 0.00 | 57 | 1019.3 |
| 20260831174504 | 61 | 15 | 13.0 | 23.0 | 0.00 | 0.00 | 0.00 | 57 | 1019.2 |
| 20260831174004 | 61 | 14 | 13.0 | 27.0 | 0.00 | 0.00 | 0.00 | 57 | 1019.2 |
| 20260831173504 | 61 | 11 | 13.0 | 27.0 | 0.00 | 0.00 | 0.00 | 57 | 1019.3 |
| 20260831173004 | 60 | 16 | 13.0 | 27.0 | 0.00 | 0.00 | 0.00 | 58 | 1019.4 |
| 20260831172504 | 60 | 23 | 12.0 | 27.0 | 0.00 | 0.00 | 0.00 | 58 | 1019.5 |
| 20260831172004 | 60 | 21 | 11.0 | 27.0 | 0.00 | 0.00 | 0.00 | 58 | 1019.6 |
| 20260831171504 | 60 | 19 | 12.0 | 19.0 | 0.00 | 0.00 | 0.00 | 58 | 1019.7 |
| 20260831171025 | 60 | 18 | 12.0 | 18.0 | 0.00 | 0.00 | 0.00 | 57 | 1019.7 |
| 20260831170504 | 61 | 16 | 13.0 | 23.0 | 0.00 | 0.00 | 0.00 | 57 | 1019.9 |
| 20260831170004 | 61 | 19 | 12.0 | 27.0 | 0.00 | 0.00 | 0.00 | 56 | 1019.8 |
| 20260831165504 | 61 | 20 | 11.0 | 27.0 | 0.00 | 0.00 | 0.00 | 56 | 1019.8 |
| 20260831165004 | 61 | 23 | 12.0 | 25.0 | 0.00 | 0.00 | 0.00 | 57 | 1020.0 |
| 20260831164503 | 60 | 30 | 12.0 | 25.0 | 0.00 | 0.00 | 0.00 | 56 | 1020.0 |
| 20260831164004 | 61 | 29 | 12.0 | 19.0 | 0.00 | 0.00 | 0.00 | 56 | 1020.2 |
| 20260831163504 | 61 | 25 | 12.0 | 20.0 | 0.00 | 0.00 | 0.00 | 56 | 1020.2 |
| 20260831163004 | 61 | 23 | 11.0 | 20.0 | 0.00 | 0.00 | 0.00 | 56 | 1020.2 |
| 20260831162504 | 61 | 23 | 10.0 | 20.0 | 0.00 | 0.00 | 0.00 | 56 | 1020.4 |
| 20260831162025 | 60 | 26 | 11.0 | 20.0 | 0.00 | 0.00 | 0.00 | 56 | 1020.3 |
| 20260831161504 | 61 | 27 | 11.0 | 19.0 | 0.00 | 0.00 | 0.00 | 56 | 1020.5 |
| 20260831161003 | 61 | 22 | 11.0 | 19.0 | 0.00 | 0.00 | 0.00 | 56 | 1020.6 |
| 20260831160504 | 61 | 19 | 11.0 | 19.0 | 0.00 | 0.00 | 0.00 | 56 | 1020.8 |
| 20260831160003 | 61 | 23 | 11.0 | 15.0 | 0.00 | 0.00 | 0.00 | 56 | 1020.9 |
| 20260831155504 | 61 | 29 | 11.0 | 18.0 | 0.00 | 0.00 | 0.00 | 56 | 1020.9 |
| 20260831155004 | 61 | 32 | 11.0 | 20.0 | 0.00 | 0.00 | 0.00 | 57 | 1021.0 |
| 20260831154525 | 61 | 31 | 11.0 | 20.0 | 0.00 | 0.00 | 0.00 | 57 | 1021.0 |
| 20260831154025 | 60 | 30 | 10.0 | 19.0 | 0.00 | 0.00 | 0.00 | 57 | 1021.1 |
| 20260831153504 | 60 | 34 | 10.0 | 18.0 | 0.00 | 0.00 | 0.00 | 57 | 1021.2 |
| 20260831153004 | 60 | 36 | 10.0 | 20.0 | 0.00 | 0.00 | 0.00 | 57 | 1021.3 |
| 20260831152504 | 60 | 35 | 10.0 | 20.0 | 0.00 | 0.00 | 0.00 | 57 | 1021.3 |
| 20260831152025 | 60 | 34 | 10.0 | 17.0 | 0.00 | 0.00 | 0.00 | 57 | 1021.5 |
| 20260831151504 | 61 | 33 | 10.0 | 19.0 | 0.00 | 0.00 | 0.00 | 57 | 1021.4 |
| 20260831151004 | 61 | 34 | 10.0 | 19.0 | 0.00 | 0.00 | 0.00 | 56 | 1021.5 |
| 20260831150504 | 61 | 35 | 10.0 | 18.0 | 0.00 | 0.00 | 0.00 | 56 | 1021.5 |
| 20260831150004 | 61 | 34 | 10.0 | 18.0 | 0.00 | 0.00 | 0.00 | 56 | 1021.6 |
| 20260831145504 | 61 | 35 | 10.0 | 17.0 | 0.00 | 0.00 | 0.00 | 56 | 1021.6 |
| 20260831145007 | 61 | 34 | 10.0 | 18.0 | 0.00 | 0.00 | 0.00 | 55 | 1021.6 |
| 20260831144504 | 61 | 33 | 10.0 | 18.0 | 0.00 | 0.00 | 0.00 | 55 | 1021.8 |
| 20260831144004 | 61 | 34 | 9.0 | 18.0 | 0.00 | 0.00 | 0.00 | 56 | 1021.8 |
| 20260831143504 | 61 | 34 | 9.0 | 14.0 | 0.00 | 0.00 | 0.00 | 56 | 1021.9 |
| 20260831143006 | 61 | 35 | 9.0 | 17.0 | 0.00 | 0.00 | 0.00 | 56 | 1021.9 |
| 20260831142504 | 60 | 39 | 8.0 | 17.0 | 0.00 | 0.00 | 0.00 | 57 | 1021.9 |
| 20260831142004 | 60 | 44 | 8.0 | 13.0 | 0.00 | 0.00 | 0.00 | 57 | 1022.0 |
| 20260831141504 | 60 | 45 | 8.0 | 15.0 | 0.00 | 0.00 | 0.00 | 57 | 1022.0 |
| 20260831141004 | 60 | 42 | 8.0 | 15.0 | 0.00 | 0.00 | 0.00 | 56 | 1022.1 |
| 20260831140504 | 60 | 43 | 8.0 | 15.0 | 0.00 | 0.00 | 0.00 | 57 | 1022.2 |
| 20260831140004 | 60 | 46 | 8.0 | 15.0 | 0.00 | 0.00 | 0.00 | 57 | 1022.3 |
| 20260831135504 | 60 | 48 | 8.0 | 17.0 | 0.00 | 0.00 | 0.00 | 57 | 1022.4 |
| 20260831135004 | 59 | 49 | 8.0 | 17.0 | 0.00 | 0.00 | 0.00 | 57 | 1022.4 |
| 20260831134504 | 59 | 53 | 7.0 | 14.0 | 0.00 | 0.00 | 0.00 | 57 | 1022.6 |
| 20260831134004 | 59 | 57 | 7.0 | 14.0 | 0.00 | 0.00 | 0.00 | 58 | 1022.6 |
| 20260831133504 | 59 | 57 | 7.0 | 13.0 | 0.00 | 0.00 | 0.00 | 58 | 1022.7 |
| 20260831133004 | 59 | 61 | 7.0 | 13.0 | 0.00 | 0.00 | 0.00 | 58 | 1022.8 |
| 20260831132504 | 59 | 62 | 8.0 | 13.0 | 0.00 | 0.00 | 0.00 | 58 | 1022.8 |
| 20260831132004 | 59 | 56 | 7.0 | 13.0 | 0.00 | 0.00 | 0.00 | 58 | 1022.8 |
| 20260831131503 | 59 | 55 | 7.0 | 14.0 | 0.00 | 0.00 | 0.00 | 59 | 1022.9 |
| 20260831131004 | 59 | 59 | 7.0 | 14.0 | 0.00 | 0.00 | 0.00 | 58 | 1022.9 |
| 20260831130504 | 59 | 58 | 7.0 | 14.0 | 0.00 | 0.00 | 0.00 | 58 | 1022.9 |
| 20260831130004 | 59 | 61 | 7.0 | 14.0 | 0.00 | 0.00 | 0.00 | 58 | 1023.0 |
| 20260831125503 | 59 | 67 | 7.0 | 13.0 | 0.00 | 0.00 | 0.00 | 58 | 1023.1 |
| 20260831125003 | 60 | 64 | 8.0 | 14.0 | 0.00 | 0.00 | 0.00 | 57 | 1023.2 |
| 20260831124504 | 60 | 61 | 7.0 | 14.0 | 0.00 | 0.00 | 0.00 | 57 | 1023.2 |
| 20260831124003 | 60 | 59 | 7.0 | 17.0 | 0.00 | 0.00 | 0.00 | 56 | 1023.3 |
| 20260831123503 | 60 | 60 | 7.0 | 17.0 | 0.00 | 0.00 | 0.00 | 56 | 1023.4 |
| 20260831123004 | 60 | 62 | 8.0 | 13.0 | 0.00 | 0.00 | 0.00 | 56 | 1023.4 |
| 20260831122504 | 60 | 60 | 8.0 | 14.0 | 0.00 | 0.00 | 0.00 | 56 | 1023.3 |
| 20260831122003 | 60 | 55 | 7.0 | 14.0 | 0.00 | 0.00 | 0.00 | 56 | 1023.2 |
| 20260831121503 | 60 | 57 | 7.0 | 17.0 | 0.00 | 0.00 | 0.00 | 56 | 1023.3 |
| 20260831121003 | 60 | 65 | 7.0 | 17.0 | 0.00 | 0.00 | 0.00 | 56 | 1023.3 |
| 20260831120504 | 60 | 64 | 7.0 | 15.0 | 0.00 | 0.00 | 0.00 | 56 | 1023.3 |
| 20260831120003 | 60 | 61 | 7.0 | 15.0 | 0.00 | 0.00 | 0.00 | 55 | 1023.4 |
| 20260831115504 | 60 | 62 | 7.0 | 17.0 | 0.00 | 0.00 | 0.00 | 56 | 1023.5 |
| 20260831115003 | 60 | 63 | 7.0 | 17.0 | 0.00 | 0.00 | 0.00 | 56 | 1023.4 |
| 20260831114503 | 60 | 68 | 7.0 | 14.0 | 0.00 | 0.00 | 0.00 | 57 | 1023.4 |
| 20260831114003 | 60 | 73 | 7.0 | 13.0 | 0.00 | 0.00 | 0.00 | 57 | 1023.5 |
| 20260831113504 | 60 | 75 | 7.0 | 18.0 | 0.00 | 0.00 | 0.00 | 58 | 1023.4 |
| 20260831113024 | 60 | 75 | 7.0 | 18.0 | 0.00 | 0.00 | 0.00 | 58 | 1023.4 |
| 20260831112503 | 60 | 73 | 8.0 | 18.0 | 0.00 | 0.00 | 0.00 | 58 | 1023.5 |
| 20260831112004 | 60 | 74 | 8.0 | 18.0 | 0.00 | 0.00 | 0.00 | 58 | 1023.5 |
| 20260831111504 | 60 | 74 | 8.0 | 15.0 | 0.00 | 0.00 | 0.00 | 58 | 1023.5 |
| 20260831111024 | 60 | 77 | 7.0 | 14.0 | 0.00 | 0.00 | 0.00 | 58 | 1023.5 |
| 20260831110504 | 60 | 76 | 7.0 | 17.0 | 0.00 | 0.00 | 0.00 | 58 | 1023.6 |
| 20260831110004 | 60 | 76 | 6.0 | 13.0 | 0.00 | 0.00 | 0.00 | 59 | 1023.6 |
| 20260831105504 | 60 | 77 | 6.0 | 13.0 | 0.00 | 0.00 | 0.00 | 59 | 1023.6 |
| 20260831105004 | 60 | 78 | 6.0 | 13.0 | 0.00 | 0.00 | 0.00 | 59 | 1023.6 |
| 20260831104504 | 60 | 84 | 7.0 | 13.0 | 0.00 | 0.00 | 0.00 | 58 | 1023.6 |
| 20260831104004 | 60 | 87 | 7.0 | 10.0 | 0.00 | 0.00 | 0.00 | 59 | 1023.7 |
| 20260831103504 | 60 | 86 | 6.0 | 10.0 | 0.00 | 0.00 | 0.00 | 59 | 1023.7 |
| 20260831103004 | 60 | 83 | 6.0 | 15.0 | 0.00 | 0.00 | 0.00 | 60 | 1023.7 |
| 20260831102524 | 60 | 84 | 6.0 | 15.0 | 0.00 | 0.00 | 0.00 | 61 | 1023.7 |
| 20260831102003 | 60 | 84 | 6.0 | 11.0 | 0.00 | 0.00 | 0.00 | 61 | 1023.8 |
| 20260831101524 | 60 | 85 | 6.0 | 11.0 | 0.00 | 0.00 | 0.00 | 62 | 1023.7 |
| 20260831101003 | 60 | 89 | 6.0 | 11.0 | 0.00 | 0.00 | 0.00 | 62 | 1023.8 |
| 20260831100504 | 60 | 93 | 5.0 | 11.0 | 0.00 | 0.00 | 0.00 | 62 | 1023.8 |
| 20260831100004 | 60 | 100 | 6.0 | 9.0 | 0.00 | 0.00 | 0.00 | 62 | 1023.9 |
| 20260831095503 | 60 | 102 | 6.0 | 9.0 | 0.00 | 0.00 | 0.00 | 62 | 1023.9 |
| 20260831095004 | 60 | 98 | 5.0 | 10.0 | 0.00 | 0.00 | 0.00 | 62 | 1024.0 |
| 20260831094503 | 61 | 93 | 5.0 | 10.0 | 0.00 | 0.00 | 0.00 | 61 | 1024.0 |
| 20260831094003 | 61 | 91 | 5.0 | 9.0 | 0.00 | 0.00 | 0.00 | 60 | 1024.0 |
| 20260831093524 | 61 | 86 | 5.0 | 11.0 | 0.00 | 0.00 | 0.00 | 60 | 1024.0 |
| 20260831093003 | 61 | 84 | 5.0 | 11.0 | 0.00 | 0.00 | 0.00 | 59 | 1024.0 |
| 20260831092503 | 61 | 83 | 5.0 | 10.0 | 0.00 | 0.00 | 0.00 | 59 | 1023.9 |
| 20260831092004 | 61 | 83 | 5.0 | 10.0 | 0.00 | 0.00 | 0.00 | 59 | 1024.0 |
| 20260831091503 | 61 | 85 | 5.0 | 10.0 | 0.00 | 0.00 | 0.00 | 59 | 1023.9 |
| 20260831091004 | 61 | 82 | 5.0 | 9.0 | 0.00 | 0.00 | 0.00 | 59 | 1023.9 |
| 20260831090525 | 62 | 81 | 4.0 | 9.0 | 0.00 | 0.00 | 0.00 | 58 | 1024.0 |
| 20260831090004 | 62 | 83 | 4.0 | 9.0 | 0.00 | 0.00 | 0.00 | 57 | 1024.1 |
| 20260831085525 | 62 | 85 | 4.0 | 9.0 | 0.00 | 0.00 | 0.00 | 57 | 1024.1 |
| 20260831085004 | 62 | 85 | 4.0 | 8.0 | 0.00 | 0.00 | 0.00 | 56 | 1024.1 |
| 20260831084503 | 62 | 89 | 4.0 | 9.0 | 0.00 | 0.00 | 0.00 | 56 | 1024.1 |
| 20260831084004 | 63 | 87 | 4.0 | 9.0 | 0.00 | 0.00 | 0.00 | 54 | 1024.1 |
| 20260831083503 | 64 | 83 | 4.0 | 9.0 | 0.00 | 0.00 | 0.00 | 53 | 1024.2 |
| 20260831083003 | 65 | 86 | 4.0 | 8.0 | 0.00 | 0.00 | 0.00 | 51 | 1024.1 |
| 20260831082503 | 66 | 81 | 4.0 | 8.0 | 0.00 | 0.00 | 0.00 | 50 | 1024.2 |
| 20260831082003 | 67 | 76 | 4.0 | 6.0 | 0.00 | 0.00 | 0.00 | 49 | 1024.2 |
| 20260831081503 | 68 | 70 | 4.0 | 8.0 | 0.00 | 0.00 | 0.00 | 47 | 1024.2 |
| 20260831081003 | 69 | 65 | 4.0 | 8.0 | 0.00 | 0.00 | 0.00 | 48 | 1024.1 |
| 20260831080503 | 69 | 58 | 4.0 | 9.0 | 0.00 | 0.00 | 0.00 | 47 | 1024.1 |
| 20260831080003 | 70 | 52 | 4.0 | 9.0 | 0.00 | 0.00 | 0.00 | 46 | 1024.0 |
| 20260831075503 | 71 | 52 | 4.0 | 9.0 | 0.00 | 0.00 | 0.00 | 46 | 1024.0 |
| 20260831075003 | 71 | 52 | 4.0 | 8.0 | 0.00 | 0.00 | 0.00 | 45 | 1023.9 |
| 20260831074503 | 72 | 50 | 4.0 | 9.0 | 0.00 | 0.00 | 0.00 | 45 | 1023.9 |
| 20260831074003 | 72 | 44 | 4.0 | 9.0 | 0.00 | 0.00 | 0.00 | 45 | 1023.9 |
| 20260831073503 | 72 | 40 | 5.0 | 9.0 | 0.00 | 0.00 | 0.00 | 45 | 1024.0 |
| 20260831073003 | 72 | 42 | 6.0 | 11.0 | 0.00 | 0.00 | 0.00 | 46 | 1024.1 |
| 20260831072503 | 72 | 37 | 6.0 | 11.0 | 0.00 | 0.00 | 0.00 | 45 | 1024.1 |
| 20260831072004 | 72 | 37 | 6.0 | 11.0 | 0.00 | 0.00 | 0.00 | 43 | 1024.1 |
| 20260831071524 | 73 | 39 | 6.0 | 11.0 | 0.00 | 0.00 | 0.00 | 44 | 1024.1 |
| 20260831071003 | 73 | 28 | 6.0 | 13.0 | 0.00 | 0.00 | 0.00 | 44 | 1024.1 |
| 20260831070525 | 73 | 26 | 6.0 | 13.0 | 0.00 | 0.00 | 0.00 | 43 | 1024.1 |
| 20260831070003 | 73 | 28 | 6.0 | 11.0 | 0.00 | 0.00 | 0.00 | 43 | 1024.2 |
| 20260831065504 | 74 | 31 | 5.0 | 11.0 | 0.00 | 0.00 | 0.00 | 43 | 1024.2 |
| 20260831065025 | 74 | 36 | 5.0 | 11.0 | 0.00 | 0.00 | 0.00 | 44 | 1024.2 |
| 20260831064504 | 74 | 34 | 6.0 | 11.0 | 0.00 | 0.00 | 0.00 | 42 | 1024.3 |
| 20260831064004 | 74 | 28 | 8.0 | 13.0 | 0.00 | 0.00 | 0.00 | 43 | 1024.3 |
| 20260831063504 | 73 | 24 | 8.0 | 13.0 | 0.00 | 0.00 | 0.00 | 43 | 1024.4 |
| 20260831063004 | 73 | 20 | 8.0 | 14.0 | 0.00 | 0.00 | 0.00 | 43 | 1024.5 |
| 20260831062525 | 73 | 20 | 8.0 | 14.0 | 0.00 | 0.00 | 0.00 | 42 | 1024.5 |
| 20260831062004 | 74 | 20 | 8.0 | 14.0 | 0.00 | 0.00 | 0.00 | 43 | 1024.5 |
| 20260831061503 | 74 | 24 | 8.0 | 17.0 | 0.00 | 0.00 | 0.00 | 42 | 1024.6 |
| 20260831061004 | 74 | 32 | 7.0 | 17.0 | 0.00 | 0.00 | 0.00 | 42 | 1024.6 |
| 20260831060525 | 74 | 22 | 7.0 | 14.0 | 0.00 | 0.00 | 0.00 | 43 | 1024.7 |
| 20260831060003 | 74 | 13 | 8.0 | 13.0 | 0.00 | 0.00 | 0.00 | 45 | 1024.7 |
| 20260831055503 | 74 | 13 | 8.0 | 15.0 | 0.00 | 0.00 | 0.00 | 43 | 1024.8 |
| 20260831055003 | 73 | 20 | 8.0 | 15.0 | 0.00 | 0.00 | 0.00 | 42 | 1024.8 |
| 20260831054503 | 73 | 23 | 9.0 | 15.0 | 0.00 | 0.00 | 0.00 | 43 | 1024.9 |
| 20260831054004 | 73 | 16 | 9.0 | 14.0 | 0.00 | 0.00 | 0.00 | 45 | 1024.8 |
| 20260831053504 | 73 | 16 | 8.0 | 14.0 | 0.00 | 0.00 | 0.00 | 42 | 1024.8 |
| 20260831053003 | 74 | 21 | 8.0 | 14.0 | 0.00 | 0.00 | 0.00 | 42 | 1024.9 |
| 20260831052503 | 74 | 28 | 8.0 | 13.0 | 0.00 | 0.00 | 0.00 | 41 | 1024.9 |
| 20260831052024 | 74 | 19 | 9.0 | 13.0 | 0.00 | 0.00 | 0.00 | 41 | 1025.0 |
| 20260831051504 | 74 | 16 | 8.0 | 14.0 | 0.00 | 0.00 | 0.00 | 38 | 1025.1 |
| 20260831051024 | 74 | 23 | 8.0 | 14.0 | 0.00 | 0.00 | 0.00 | 42 | 1025.1 |
| 20260831050504 | 73 | 18 | 8.0 | 14.0 | 0.00 | 0.00 | 0.00 | 41 | 1025.1 |
| 20260831050004 | 73 | 19 | 9.0 | 15.0 | 0.00 | 0.00 | 0.00 | 44 | 1025.2 |
| 20260831045503 | 73 | 23 | 9.0 | 15.0 | 0.00 | 0.00 | 0.00 | 41 | 1025.3 |
| 20260831045003 | 73 | 17 | 8.0 | 17.0 | 0.00 | 0.00 | 0.00 | 40 | 1025.3 |
| 20260831044503 | 73 | 26 | 8.0 | 17.0 | 0.00 | 0.00 | 0.00 | 39 | 1025.5 |
| 20260831044024 | 74 | 29 | 9.0 | 15.0 | 0.00 | 0.00 | 0.00 | 38 | 1025.6 |
| 20260831043524 | 73 | 18 | 10.0 | 15.0 | 0.00 | 0.00 | 0.00 | 44 | 1025.7 |
| 20260831043004 | 73 | 15 | 10.0 | 18.0 | 0.00 | 0.00 | 0.00 | 44 | 1025.7 |
| 20260831042504 | 73 | 12 | 10.0 | 18.0 | 0.00 | 0.00 | 0.00 | 44 | 1025.9 |
| 20260831042024 | 73 | 14 | 10.0 | 15.0 | 0.00 | 0.00 | 0.00 | 44 | 1026.0 |
| 20260831041503 | 73 | 22 | 10.0 | 15.0 | 0.00 | 0.00 | 0.00 | 42 | 1026.0 |
| 20260831041003 | 73 | 23 | 11.0 | 15.0 | 0.00 | 0.00 | 0.00 | 41 | 1026.1 |
| 20260831040524 | 73 | 11 | 11.0 | 18.0 | 0.00 | 0.00 | 0.00 | 44 | 1026.2 |
| 20260831040004 | 72 | 9 | 10.0 | 18.0 | 0.00 | 0.00 | 0.00 | 43 | 1026.3 |
| 20260831035503 | 73 | 18 | 9.0 | 15.0 | 0.00 | 0.00 | 0.00 | 42 | 1026.5 |
| 20260831035003 | 73 | 9 | 9.0 | 15.0 | 0.00 | 0.00 | 0.00 | 42 | 1026.7 |
| 20260831034504 | 73 | 7 | 10.0 | 15.0 | 0.00 | 0.00 | 0.00 | 44 | 1026.8 |